User: anonymous   Login
Location: Unspecified
(0.0000°N, 0.0000°E)
Time: 02:59:08
(UTC+00:00)
Language:

COSMOS 2496 - Orbit

View from above orbital plane
View from above orbital plane
View from above satellite
View from above satellite

Ground track
Ground track

The orbit data is extracted from the following two-line orbital elements,

1 39761U 14028A   17232.87656809  .00000010  00000-0  00000+0 0  9995
2 39761  82.4490 327.1416 0018544 255.7723 104.1301 12.42869958147288
Epoch (UTC): 20 August 2017 21:02:15
Eccentricity: 0.0018544
inclination: 82.4490°
perigee height: 1480 km
apogee height: 1509 km
right ascension of ascending node: 327.1416°
argument of perigee: 255.7723°
revolutions per day: 12.42869958
mean anomaly at epoch: 104.1301°
orbit number at epoch: 14728

The dashed part of the orbit path shows where the satellite is in the earth's shadow,  

DLR